カタログに戻る

SL-12 DEB

LostHEO
NORAD 33586·DEBRIS·🇷🇺 Russia

打ち上げ May 31, 1989 から Baikonur Cosmodrome

Loading…

次のパス (今後24時間)

TLE

古いSource: Space-Track

元期: Oct 24, 2011, 07:13 UTC

1 33586U 89039EE  11297.30074087 +.00005114 +00000-0 +12041-1 0  9993
2 33586 065.0250 289.4567 5680853 343.0221 008.0080 04.31678541042838

AllMySatでSL-12 DEBをリアルタイム追跡

Download on the App Store